"Pseudo-MPEC" for C14XC15

Created 2025 Jul 7 22:35:03 UT using Find_Orb

Click here for an explanation of pseudo-MPECs

 
 Astrometry: 
     C14XC15* C2025 07 06.30709621 07 05.790-08 24 32.08   ~768Z       VNEOCPV00
     C14XC15  C2025 07 06.31269421 07 05.416-08 24 45.25   ~768Z 21.79GVNEOCPV00
     C14XC15  C2025 07 06.31828321 07 05.016-08 24 58.50   ~768Z 22.08GVNEOCPV00
     C14XC15  C2025 07 06.32386821 07 04.606-08 25 11.68   ~768Z 21.78GVNEOCPV00
     C14XC15  C2025 07 06.36577521 07 01.524-08 26 51.44   ~769Z 21.2 GWNEOCPH01
     C14XC15  C2025 07 06.36884021 07 01.370-08 26 58.30   ~769o 21.9 RVNEOCP291
     C14XC15  C2025 07 06.37026321 07 01.194-08 27 02.25   ~769Z 21.1 GWNEOCPH01
     C14XC15  C2025 07 06.37633021 07 00.840-08 27 16.30   ~769o 21.7 RVNEOCP291
     C14XC15  C2025 07 06.38356121 07 00.227-08 27 33.71   ~769Z 21.3 GWNEOCPH01
     C14XC15  C2025 07 06.38383021 07 00.290-08 27 33.80   ~769o 22.2 RVNEOCP291
     C14XC15  C2025 07 06.39123821 06 59.677-08 27 51.97   ~769Z 21.7 GWNEOCPH01
     C14XC15  C2025 07 07.41155021 05 48.910-09 08 54.80   ~77C5 22.0 RVNEOCP691
     C14XC15  C2025 07 07.41911021 05 48.310-09 09 12.60   ~77C5 22.2 RVNEOCP691
     C14XC15  C2025 07 07.42667021 05 47.760-09 09 31.60   ~77C5 21.3 RVNEOCP691

Station data:
(291) LPL/Spacewatch II  (N31.961669 W111.599905)  US/Arizona.  Observers J.
   V. Scotti, R. S. McMillan. 1.8-m f/2.7 reflector + CCD.
(691) Steward Observatory, Kitt Peak - Spacewatch  (N31.962174 W111.600327)
   US/Arizona.  Observer J. V. Scotti. 0.9-m f/3 reflector + CCD.
(H01) Magdalena Ridge Observatory, Socorro  (N33.984833 W107.189333)  US/New
   Mexico.  Observers W. H. Ryan, E. V. Ryan. Measurer W. H. Ryan. 2.4-m
   f/8.9 reflector + CCD.
(V00) Kitt Peak-Bok  (N31.963125 W111.600190)  US/Arizona.  Observers T. A.
   Pruyne, B. M. Africano, E. J. Christensen, G. A. Farneth, D. C. Fuls, A.
   R. Gibbs, A. D. Grauer, H. Gröller, J. A. Johnson, R. A. Kowalski, S. M.
   Larson, G. J. Leonard, D. Rankin, R. L. Seaman, F. C. Shelly, K. W.
   Wierzchoś. 2.25-m reflector + 4x4K mosaic CCD.

Orbital elements:  C14XC15
   Perihelion 2025 Dec 11.33680 +/- 204 TT =  8:04:59 (JD 2461020.83680)
Epoch 2025 Jul  7.0 TT = JDT 2460863.5   Earth MOID: 0.0502      AutoNEOCP
M 271.39817978 +/- 80               (J2000 ecliptic)
n   0.56313473 +/- 0.138            Peri.  309.19269 +/- 48
a   1.45231615 +/- 0.237            Node   120.71530 +/- 0.9
e   0.4298128 +/- 0.102             Incl.   48.61605 +/- 9
P   1.750/639.267d         H 20.61  G  0.15   U 11.5  SR
q 0.82809200 +/- 0.304    Q 2.07654031 +/- 0.258
From 14 observations 2025 July 6-7 (26.9 hr); mean residual 0".40
Residuals in arcseconds: 
250706 V00  .56+  .20+    250706 291  .15-  .03+    250706 H01  .79-  .31-    
250706 V00  .85+  .27+    250706 H01  .46-  .22-    250707 691  .18+  .38-    
250706 V00  .76+  .23+    250706 291  .09-  .25-    250707 691  .19-  .42+    
250706 V00  .52+  .26+    250706 H01  .75-  .22-    250707 691  .17+  .02+    
250706 H01  .30-  .03-    250706 291  .31-  .00     

Ephemerides (geocentric):
Date (UTC) HH   RA             Dec           delta  r     elong  mag " sig PA
---- --------  ------------   ------------  ------ ------ -----  --- --------
2025 07 07 23  21 05 09.107   -09 31 26.37  .72069 1.6765 149.1 22.0 9.17 154
2025 07 08 00  21 05 06.014   -09 33 11.15  .72021 1.6763 149.2 22.0 10.2 154
2025 07 08 01  21 05 02.913   -09 34 56.09  .71973 1.6761 149.3 22.0 11.3 154
2025 07 08 02  21 04 59.804   -09 36 41.20  .71925 1.6759 149.3 21.9 12.4 154
2025 07 08 03  21 04 56.687   -09 38 26.47  .71878 1.6757 149.4 21.9 13.6 154
2025 07 08 04  21 04 53.562   -09 40 11.91  .71830 1.6755 149.5 21.9 14.8 154
2025 07 08 05  21 04 50.429   -09 41 57.52  .71782 1.6753 149.5 21.9 16.1 154
2025 07 08 06  21 04 47.288   -09 43 43.28  .71735 1.6751 149.6 21.9 17.4 154
2025 07 08 07  21 04 44.139   -09 45 29.22  .71687 1.6748 149.6 21.9 18.7 154
2025 07 08 08  21 04 40.982   -09 47 15.31  .71640 1.6746 149.7 21.9 20.1 154
2025 07 08 09  21 04 37.816   -09 49 01.57  .71592 1.6744 149.8 21.9 21.5 154
2025 07 08 10  21 04 34.643   -09 50 48.00  .71545 1.6742 149.8 21.9 23.0 154
2025 07 08 11  21 04 31.462   -09 52 34.59  .71498 1.6740 149.9 21.9 24.5 154
2025 07 08 12  21 04 28.272   -09 54 21.35  .71450 1.6738 150.0 21.9 26.1 154
2025 07 08 13  21 04 25.075   -09 56 08.28  .71403 1.6736 150.0 21.9 27.7 154
2025 07 08 14  21 04 21.869   -09 57 55.36  .71356 1.6734 150.1 21.9 29.4 154
2025 07 08 15  21 04 18.656   -09 59 42.62  .71309 1.6732 150.2 21.9 31.1 154
2025 07 08 16  21 04 15.434   -10 01 30.04  .71262 1.6730 150.2 21.9 32.8 154
2025 07 08 17  21 04 12.204   -10 03 17.63  .71215 1.6728 150.3 21.9 34.6 154
2025 07 08 18  21 04 08.966   -10 05 05.38  .71168 1.6726 150.4 21.9 36.4 154
2025 07 08 19  21 04 05.720   -10 06 53.30  .71121 1.6724 150.4 21.9 38.3 154
2025 07 08 20  21 04 02.465   -10 08 41.38  .71074 1.6721 150.5 21.9 40.2 154
2025 07 08 21  21 03 59.203   -10 10 29.63  .71027 1.6719 150.5 21.9 42.2 154
2025 07 08 22  21 03 55.932   -10 12 18.05  .70980 1.6717 150.6 21.9 44.2 154
2025 07 08 23  21 03 52.653   -10 14 06.63  .70934 1.6715 150.7 21.9 46.2 154
2025 07 09 00  21 03 49.366   -10 15 55.38  .70887 1.6713 150.7 21.9 48.3 154
2025 07 09 01  21 03 46.071   -10 17 44.30  .70840 1.6711 150.8 21.9 50.5 154
2025 07 09 02  21 03 42.767   -10 19 33.38  .70794 1.6709 150.9 21.9 52.7 154
2025 07 09 03  21 03 39.455   -10 21 22.63  .70747 1.6707 150.9 21.9 54.9 154
2025 07 09 04  21 03 36.136   -10 23 12.05  .70701 1.6705 151.0 21.9 57.2 154
2025 07 09 05  21 03 32.807   -10 25 01.63  .70654 1.6703 151.1 21.9 59.5 154
2025 07 09 06  21 03 29.471   -10 26 51.39  .70608 1.6701 151.1 21.9 61.9 154
2025 07 09 07  21 03 26.126   -10 28 41.30  .70561 1.6699 151.2 21.9 64.3 154
2025 07 09 08  21 03 22.773   -10 30 31.39  .70515 1.6697 151.3 21.9 66.7 154
2025 07 09 09  21 03 19.412   -10 32 21.64  .70469 1.6694 151.3 21.9 69.2 154
2025 07 09 10  21 03 16.042   -10 34 12.06  .70423 1.6692 151.4 21.9 71.8 154
2025 07 09 11  21 03 12.664   -10 36 02.65  .70376 1.6690 151.5 21.9 74.4 154
2025 07 09 12  21 03 09.278   -10 37 53.41  .70330 1.6688 151.5 21.9 77.0 154
2025 07 09 13  21 03 05.883   -10 39 44.33  .70284 1.6686 151.6 21.9 79.7 154
2025 07 09 14  21 03 02.481   -10 41 35.42  .70238 1.6684 151.7 21.8 82.4 154
2025 07 09 15  21 02 59.069   -10 43 26.68  .70192 1.6682 151.7 21.8 85.2 154
2025 07 09 16  21 02 55.650   -10 45 18.10  .70146 1.6680 151.8 21.8 88.1 154
2025 07 09 17  21 02 52.222   -10 47 09.70  .70101 1.6678 151.8 21.8 90.9 154
2025 07 09 18  21 02 48.786   -10 49 01.46  .70055 1.6676 151.9 21.8 93.9 154
2025 07 09 19  21 02 45.341   -10 50 53.39  .70009 1.6674 152.0 21.8 96.8 154
2025 07 09 20  21 02 41.888   -10 52 45.49  .69963 1.6671 152.0 21.8  100 153
2025 07 09 21  21 02 38.426   -10 54 37.76  .69918 1.6669 152.1 21.8  103 153
2025 07 09 22  21 02 34.956   -10 56 30.19  .69872 1.6667 152.2 21.8  106 153